Location: Dammartin
(48.9032°N, 1.6195°E)
Time: 14:47:15
(UTC+00:00)

Cosmos 1606 Rocket - Pass Details

Date: 03 February 2023
Orbit: 602 x 629 km, 82.5° (Epoch: 30 March)

Event Time Altitude Azimuth Distance (km) Brightness Sun altitude
Rises 18:28:21 0° 347° (NNW) 2,868 7.1 -15.7°
Reaches altitude 10° 18:30:35 10° 344° (NNW) 1,960 6.2 -16.1°
Maximum altitude 18:34:51 60° 264° (W) 697 4.1 -16.8°
Drops below altitude 10° 18:39:06 10° 185° (S) 1,950 6.2 -17.5°
Sets 18:41:19 0° 182° (S) 2,852 7.1 -17.8°
